Time,TemperatureF,DewpointF,PressureIn,WindDirection,WindDirectionDegrees,WindSpeedMPH,WindSpeedGustMPH,Humidity,HourlyPrecipIn,Conditions,Clouds,dailyrainin,SoftwareType,DateUTC
2013-10-06 00:07:00,41.8,41.0,29.72,WSW,239,0.0,-999.0,95,-99.99,,,0.00,weatherlink.com 1.10,2013-10-06 05:07:00,
2013-10-06 00:22:00,41.9,41.0,29.72,WSW,240,0.0,-999.0,96,-99.99,,,0.00,weatherlink.com 1.10,2013-10-06 05:22:00,
2013-10-06 00:37:00,42.1,41.0,29.71,WSW,239,0.0,-999.0,95,-99.99,,,0.00,weatherlink.com 1.10,2013-10-06 05:37:00,
2013-10-06 00:52:00,42.9,42.0,29.71,WSW,239,0.0,-999.0,96,-99.99,,,0.00,weatherlink.com 1.10,2013-10-06 05:52:00,
2013-10-06 01:07:00,42.9,42.0,29.70,WSW,239,0.0,-999.0,96,-99.99,,,0.00,weatherlink.com 1.10,2013-10-06 06:07:00,
2013-10-06 01:22:00,43.2,42.0,29.70,WSW,239,0.0,-999.0,96,-99.99,,,0.00,weatherlink.com 1.10,2013-10-06 06:22:00,
2013-10-06 01:37:00,43.3,42.0,29.70,WSW,240,0.0,-999.0,96,-99.99,,,0.00,weatherlink.com 1.10,2013-10-06 06:37:00,
2013-10-06 01:52:00,43.2,42.0,29.70,WSW,239,0.0,-999.0,96,-99.99,,,0.00,weatherlink.com 1.10,2013-10-06 06:52:00,
2013-10-06 02:07:00,43.1,42.0,29.69,WSW,239,0.0,-999.0,96,-99.99,,,0.00,weatherlink.com 1.10,2013-10-06 07:07:00,
2013-10-06 02:22:00,42.8,42.0,29.69,WSW,239,0.0,-999.0,96,-99.99,,,0.00,weatherlink.com 1.10,2013-10-06 07:22:00,
2013-10-06 02:37:00,42.3,41.0,29.68,WSW,239,0.0,-999.0,96,-99.99,,,0.00,weatherlink.com 1.10,2013-10-06 07:37:00,
2013-10-06 02:52:00,41.9,41.0,29.68,WSW,239,0.0,-999.0,96,-99.99,,,0.00,weatherlink.com 1.10,2013-10-06 07:52:00,
2013-10-06 03:07:00,42.1,41.0,29.68,WSW,239,0.0,-999.0,96,-99.99,,,0.00,weatherlink.com 1.10,2013-10-06 08:07:00,
2013-10-06 03:22:00,42.5,42.0,29.68,WSW,239,0.0,-999.0,96,-99.99,,,0.00,weatherlink.com 1.10,2013-10-06 08:22:00,
2013-10-06 03:37:00,42.2,41.0,29.68,WSW,239,0.0,-999.0,96,-99.99,,,0.00,weatherlink.com 1.10,2013-10-06 08:37:00,
2013-10-06 03:52:00,42.1,41.0,29.67,WSW,239,0.0,-999.0,96,-99.99,,,0.00,weatherlink.com 1.10,2013-10-06 08:52:00,
2013-10-06 04:07:00,41.9,41.0,29.67,WSW,239,2.0,-999.0,95,-99.99,,,0.00,weatherlink.com 1.10,2013-10-06 09:07:00,
2013-10-06 04:22:00,42.6,42.0,29.67,WSW,239,0.0,-999.0,96,-99.99,,,0.00,weatherlink.com 1.10,2013-10-06 09:22:00,
2013-10-06 04:37:00,42.8,42.0,29.67,WSW,239,0.0,-999.0,95,-99.99,,,0.00,weatherlink.com 1.10,2013-10-06 09:37:00,
2013-10-06 04:52:00,42.3,41.0,29.66,WSW,239,0.0,-999.0,95,-99.99,,,0.00,weatherlink.com 1.10,2013-10-06 09:52:00,
2013-10-06 05:07:00,41.8,41.0,29.66,WSW,239,0.0,-999.0,95,-99.99,,,0.00,weatherlink.com 1.10,2013-10-06 10:07:00,
2013-10-06 05:22:00,41.9,41.0,29.67,WSW,239,0.0,-999.0,95,-99.99,,,0.00,weatherlink.com 1.10,2013-10-06 10:22:00,
2013-10-06 05:37:00,41.3,40.0,29.68,WSW,239,0.0,-999.0,95,-99.99,,,0.00,weatherlink.com 1.10,2013-10-06 10:37:00,
2013-10-06 05:52:00,41.6,41.0,29.68,WSW,239,1.0,-999.0,96,-99.99,,,0.00,weatherlink.com 1.10,2013-10-06 10:52:00,
2013-10-06 06:07:00,42.5,42.0,29.68,WSW,240,0.0,-999.0,96,-99.99,,,0.00,weatherlink.com 1.10,2013-10-06 11:07:00,
2013-10-06 06:22:00,42.3,41.0,29.68,WSW,240,0.0,-999.0,96,-99.99,,,0.00,weatherlink.com 1.10,2013-10-06 11:22:00,
2013-10-06 06:37:00,41.8,41.0,29.68,WSW,239,0.0,-999.0,95,-99.99,,,0.00,weatherlink.com 1.10,2013-10-06 11:37:00,
2013-10-06 06:52:00,41.5,41.0,29.68,WSW,239,0.0,-999.0,96,-99.99,,,0.00,weatherlink.com 1.10,2013-10-06 11:52:00,
2013-10-06 07:07:00,41.3,40.0,29.69,WSW,243,0.0,-999.0,96,-99.99,,,0.00,weatherlink.com 1.10,2013-10-06 12:07:00,
2013-10-06 07:22:00,40.9,40.0,29.69,WSW,243,0.0,-999.0,96,-99.99,,,0.00,weatherlink.com 1.10,2013-10-06 12:22:00,
2013-10-06 07:37:00,41.3,40.0,29.68,WSW,243,0.0,-999.0,96,-99.99,,,0.00,weatherlink.com 1.10,2013-10-06 12:37:00,
2013-10-06 07:52:00,42.1,41.0,29.68,WSW,243,0.0,-999.0,96,-99.99,,,0.00,weatherlink.com 1.10,2013-10-06 12:52:00,
2013-10-06 08:07:00,43.2,42.0,29.68,WSW,243,0.0,-999.0,96,-99.99,,,0.00,weatherlink.com 1.10,2013-10-06 13:07:00,
2013-10-06 08:22:00,43.6,42.0,29.68,WSW,243,0.0,-999.0,95,-99.99,,,0.00,weatherlink.com 1.10,2013-10-06 13:22:00,
2013-10-06 08:37:00,43.6,42.0,29.68,WSW,243,1.0,-999.0,95,-99.99,,,0.00,weatherlink.com 1.10,2013-10-06 13:37:00,
2013-10-06 08:52:00,43.8,43.0,29.68,WSW,243,0.0,-999.0,95,-99.99,,,0.00,weatherlink.com 1.10,2013-10-06 13:52:00,
2013-10-06 09:07:00,44.3,43.0,29.69,WSW,243,1.0,-999.0,95,-99.99,,,0.00,weatherlink.com 1.10,2013-10-06 14:07:00,
2013-10-06 09:22:00,44.3,43.0,29.69,WSW,243,0.0,-999.0,94,-99.99,,,0.00,weatherlink.com 1.10,2013-10-06 14:22:00,
2013-10-06 09:37:00,45.5,44.0,29.69,WSW,243,0.0,-999.0,95,-99.99,,,0.00,weatherlink.com 1.10,2013-10-06 14:37:00,
2013-10-06 09:52:00,48.2,47.0,29.68,WSW,243,0.0,-999.0,95,-99.99,,,0.00,weatherlink.com 1.10,2013-10-06 14:52:00,
2013-10-06 10:07:00,48.0,46.0,29.69,NNW,333,0.0,-999.0,92,-99.99,,,0.00,weatherlink.com 1.10,2013-10-06 15:07:00,
2013-10-06 10:22:00,47.3,45.0,29.69,NNW,331,1.0,-999.0,93,-99.99,,,0.00,weatherlink.com 1.10,2013-10-06 15:22:00,
2013-10-06 10:37:00,47.4,46.0,29.69,NNW,329,1.0,-999.0,93,-99.99,,,0.00,weatherlink.com 1.10,2013-10-06 15:37:00,
2013-10-06 10:52:00,47.9,46.0,29.69,NNW,328,1.0,-999.0,94,-99.99,,,0.00,weatherlink.com 1.10,2013-10-06 15:52:00,
2013-10-06 11:07:00,48.3,47.0,29.69,NW,326,0.0,-999.0,94,-99.99,,,0.00,weatherlink.com 1.10,2013-10-06 16:07:00,
2013-10-06 11:22:00,48.6,47.0,29.69,NNW,329,0.0,-999.0,95,-99.99,,,0.00,weatherlink.com 1.10,2013-10-06 16:22:00,
2013-10-06 11:37:00,49.2,48.0,29.69,NW,321,0.0,-999.0,95,-99.99,,,0.00,weatherlink.com 1.10,2013-10-06 16:37:00,
2013-10-06 11:52:00,49.6,48.0,29.70,West,279,0.0,-999.0,95,-99.99,,,0.00,weatherlink.com 1.10,2013-10-06 16:52:00,
2013-10-06 12:07:00,50.1,49.0,29.69,West,279,0.0,-999.0,94,-99.99,,,0.00,weatherlink.com 1.10,2013-10-06 17:07:00,
2013-10-06 12:22:00,50.2,49.0,29.69,West,279,0.0,-999.0,94,-99.99,,,0.01,weatherlink.com 1.10,2013-10-06 17:22:00,
2013-10-06 12:37:00,50.4,49.0,29.69,West,279,0.0,-999.0,94,-99.99,,,0.01,weatherlink.com 1.10,2013-10-06 17:37:00,
2013-10-06 12:52:00,51.0,49.0,29.69,West,279,0.0,-999.0,94,-99.99,,,0.01,weatherlink.com 1.10,2013-10-06 17:52:00,
2013-10-06 13:07:00,51.0,49.0,29.69,WNW,283,1.0,-999.0,94,-99.99,,,0.01,weatherlink.com 1.10,2013-10-06 18:07:00,
2013-10-06 13:23:00,51.1,49.0,29.69,WNW,296,0.0,-999.0,93,-99.99,,,0.01,weatherlink.com 1.10,2013-10-06 18:23:00,
2013-10-06 13:38:00,51.1,49.0,29.68,WNW,296,0.0,-999.0,93,-99.99,,,0.02,weatherlink.com 1.10,2013-10-06 18:38:00,
2013-10-06 13:53:00,51.4,50.0,29.68,NNE,28,1.0,-999.0,93,-99.99,,,0.02,weatherlink.com 1.10,2013-10-06 18:53:00,
2013-10-06 14:08:00,52.2,50.0,29.68,NE,47,1.0,-999.0,93,-99.99,,,0.02,weatherlink.com 1.10,2013-10-06 19:08:00,
2013-10-06 14:23:00,52.6,50.0,29.68,NE,41,0.0,-999.0,91,-99.99,,,0.02,weatherlink.com 1.10,2013-10-06 19:23:00,
2013-10-06 14:38:00,52.5,49.0,29.68,NNE,31,2.0,-999.0,89,-99.99,,,0.02,weatherlink.com 1.10,2013-10-06 19:38:00,
2013-10-06 14:53:00,52.3,49.0,29.69,North,0,0.0,-999.0,88,-99.99,,,0.02,weatherlink.com 1.10,2013-10-06 19:53:00,
2013-10-06 15:08:00,51.9,48.0,29.69,NE,41,2.0,-999.0,86,-99.99,,,0.02,weatherlink.com 1.10,2013-10-06 20:08:00,
2013-10-06 15:23:00,51.3,48.0,29.69,North,0,0.0,-999.0,89,-99.99,,,0.02,weatherlink.com 1.10,2013-10-06 20:23:00,
2013-10-06 15:38:00,51.1,49.0,29.70,NNW,328,4.0,-999.0,91,-99.99,,,0.02,weatherlink.com 1.10,2013-10-06 20:38:00,
2013-10-06 15:53:00,51.0,49.0,29.70,NE,36,6.0,-999.0,92,-99.99,,,0.03,weatherlink.com 1.10,2013-10-06 20:53:00,
2013-10-06 16:08:00,51.1,49.0,29.70,NW,323,3.0,-999.0,92,-99.99,,,0.03,weatherlink.com 1.10,2013-10-06 21:08:00,
2013-10-06 16:23:00,51.3,49.0,29.71,NNW,332,1.0,-999.0,92,-99.99,,,0.03,weatherlink.com 1.10,2013-10-06 21:23:00,
2013-10-06 16:38:00,50.5,48.0,29.71,North,353,2.0,-999.0,92,-99.99,,,0.03,weatherlink.com 1.10,2013-10-06 21:38:00,
2013-10-06 16:53:00,50.5,48.0,29.72,North,355,0.0,-999.0,91,-99.99,,,0.03,weatherlink.com 1.10,2013-10-06 21:53:00,
2013-10-06 17:08:00,50.5,48.0,29.73,NNE,25,6.0,-999.0,90,-99.99,,,0.03,weatherlink.com 1.10,2013-10-06 22:08:00,
2013-10-06 17:23:00,50.4,47.0,29.74,NNW,336,0.0,-999.0,89,-99.99,,,0.03,weatherlink.com 1.10,2013-10-06 22:23:00,
2013-10-06 17:38:00,49.6,47.0,29.74,NW,326,6.0,-999.0,89,-99.99,,,0.03,weatherlink.com 1.10,2013-10-06 22:38:00,
2013-10-06 17:53:00,49.4,46.0,29.76,West,276,4.0,-999.0,88,-99.99,,,0.03,weatherlink.com 1.10,2013-10-06 22:53:00,
2013-10-06 18:08:00,48.8,46.0,29.76,North,0,2.0,-999.0,90,-99.99,,,0.03,weatherlink.com 1.10,2013-10-06 23:08:00,
2013-10-06 18:23:00,48.5,46.0,29.77,NNW,337,1.0,-999.0,91,-99.99,,,0.03,weatherlink.com 1.10,2013-10-06 23:23:00,
2013-10-06 18:38:00,48.3,46.0,29.77,North,1,0.0,-999.0,90,-99.99,,,0.03,weatherlink.com 1.10,2013-10-06 23:38:00,
2013-10-06 18:53:00,48.2,46.0,29.79,WNW,293,0.0,-999.0,91,-99.99,,,0.03,weatherlink.com 1.10,2013-10-06 23:53:00,
2013-10-06 19:08:00,48.0,46.0,29.79,North,350,0.0,-999.0,92,-99.99,,,0.03,weatherlink.com 1.10,2013-10-07 00:08:00,
2013-10-06 19:23:00,48.0,46.0,29.80,North,349,4.0,-999.0,92,-99.99,,,0.03,weatherlink.com 1.10,2013-10-07 00:23:00,
2013-10-06 19:38:00,48.2,46.0,29.80,NNW,348,1.0,-999.0,93,-99.99,,,0.04,weatherlink.com 1.10,2013-10-07 00:38:00,
2013-10-06 19:53:00,48.3,46.0,29.80,North,356,0.0,-999.0,92,-99.99,,,0.04,weatherlink.com 1.10,2013-10-07 00:53:00,
2013-10-06 20:08:00,47.9,46.0,29.80,North,354,0.0,-999.0,92,-99.99,,,0.04,weatherlink.com 1.10,2013-10-07 01:08:00,
2013-10-06 20:23:00,47.7,46.0,29.81,NNW,343,0.0,-999.0,93,-99.99,,,0.04,weatherlink.com 1.10,2013-10-07 01:23:00,
2013-10-06 20:38:00,47.3,45.0,29.82,NNW,343,0.0,-999.0,93,-99.99,,,0.04,weatherlink.com 1.10,2013-10-07 01:38:00,
2013-10-06 20:53:00,46.8,45.0,29.81,NNW,343,0.0,-999.0,93,-99.99,,,0.04,weatherlink.com 1.10,2013-10-07 01:53:00,
2013-10-06 21:08:00,46.4,45.0,29.82,NNW,343,0.0,-999.0,94,-99.99,,,0.04,weatherlink.com 1.10,2013-10-07 02:08:00,
2013-10-06 21:23:00,46.2,45.0,29.81,NNW,340,0.0,-999.0,94,-99.99,,,0.04,weatherlink.com 1.10,2013-10-07 02:23:00,
2013-10-06 21:38:00,46.1,45.0,29.82,NNW,340,0.0,-999.0,94,-99.99,,,0.04,weatherlink.com 1.10,2013-10-07 02:38:00,
2013-10-06 21:53:00,45.5,44.0,29.82,NNW,340,0.0,-999.0,95,-99.99,,,0.05,weatherlink.com 1.10,2013-10-07 02:53:00,
2013-10-06 22:08:00,45.4,44.0,29.82,NNW,339,0.0,-999.0,95,-99.99,,,0.05,weatherlink.com 1.10,2013-10-07 03:08:00,
2013-10-06 22:23:00,45.4,44.0,29.83,NNW,336,0.0,-999.0,95,-99.99,,,0.05,weatherlink.com 1.10,2013-10-07 03:23:00,
2013-10-06 22:38:00,45.5,44.0,29.83,WSW,250,2.0,-999.0,95,-99.99,,,0.05,weatherlink.com 1.10,2013-10-07 03:38:00,
2013-10-06 22:53:00,45.8,45.0,29.83,WNW,286,0.0,-999.0,95,-99.99,,,0.05,weatherlink.com 1.10,2013-10-07 03:53:00,
2013-10-06 23:08:00,45.4,44.0,29.83,West,273,0.0,-999.0,95,-99.99,,,0.05,weatherlink.com 1.10,2013-10-07 04:08:00,
2013-10-06 23:23:00,44.9,44.0,29.83,West,273,0.0,-999.0,95,-99.99,,,0.05,weatherlink.com 1.10,2013-10-07 04:23:00,
2013-10-06 23:38:00,45.2,44.0,29.83,West,268,0.0,-999.0,95,-99.99,,,0.05,weatherlink.com 1.10,2013-10-07 04:38:00,
2013-10-06 23:53:00,45.7,44.0,29.82,WSW,255,0.0,-999.0,93,-99.99,,,0.05,weatherlink.com 1.10,2013-10-07 04:53:00,